When you browse on this site, cookies collect data to enhance your experience and personalize the content and advertising you see.
Visit our Privacy Policy to learn more. By continuing to use the site, you agree to this use of cookies and data.
  • In Schweiz
  • Länderverzeichnis
  • Für 7 Tage
  • Wassertemperatur
  • Satellitenkarten
  • Wetterkarte
  • Widgets
  • user-avatar
    Anmelden

    Stündliche Wetter Luchanskiy

    Heute, 20 Juni, Donnerstag

    Zeit Temperatur Niederschläge Wind Luftdruck Luftfeuchtigkeit
    00:00 +18°C° 0 mm 1 m/S 743 mmHg 81%
    01:00 +18°C° 0 mm 1 m/S 743 mmHg 80%
    02:00 +16°C° 0 mm 1 m/S 743 mmHg 80%
    03:00 +16°C° 0 mm 1 m/S 744 mmHg 79%
    04:00 +18°C° 0 mm 1 m/S 744 mmHg 80%
    05:00 +18°C° 0 mm 1 m/S 744 mmHg 80%
    06:00 +19°C° 0 mm 1 m/S 744 mmHg 81%
    07:00 +20°C° 0 mm 1 m/S 744 mmHg 76%
    08:00 +22°C° 0 mm 1 m/S 744 mmHg 71%
    09:00 +24°C° 0 mm 1 m/S 744 mmHg 66%
    10:00 +25°C° 0 mm 1 m/S 744 mmHg 62%
    11:00 +26°C° 0 mm 1 m/S 744 mmHg 57%
    12:00 +27°C° 0 mm 1 m/S 745 mmHg 53%
    13:00 +27°C° 0 mm 1 m/S 744 mmHg 52%
    14:00 +27°C° 0 mm 1 m/S 744 mmHg 50%
    15:00 +28°C° 0 mm 1 m/S 744 mmHg 49%
    16:00 +27°C° 0 mm 1 m/S 744 mmHg 52%
    17:00 +27°C° 0 mm 1 m/S 744 mmHg 56%
    18:00 +27°C° 0 mm 1 m/S 744 mmHg 59%
    19:00 +25°C° 0 mm 1 m/S 744 mmHg 62%
    20:00 +23°C° 0 mm 1 m/S 744 mmHg 65%
    21:00 +21°C° 0 mm 1 m/S 744 mmHg 68%
    22:00 +21°C° 0 mm 1 m/S 744 mmHg 70%
    23:00 +20°C° 0 mm 1 m/S 744 mmHg 72%

    Morgen, 21 Juni, Freitag

    Zeit Temperatur Niederschläge Wind Luftdruck Luftfeuchtigkeit
    00:00 +20°C° 0 mm 1 m/S 744 mmHg 74%
    01:00 +19°C° 0 mm 1 m/S 745 mmHg 75%
    02:00 +19°C° 0 mm 1 m/S 745 mmHg 75%
    03:00 +18°C° 0 mm 1 m/S 745 mmHg 76%
    04:00 +19°C° 0 mm 1 m/S 745 mmHg 76%
    05:00 +20°C° 0 mm 1 m/S 745 mmHg 77%
    06:00 +21°C° 0 mm 1 m/S 745 mmHg 77%
    07:00 +22°C° 0 mm 1 m/S 745 mmHg 74%
    08:00 +23°C° 0 mm 1 m/S 746 mmHg 70%
    09:00 +25°C° 0 mm 2 m/S 746 mmHg 66%
    10:00 +26°C° 0 mm 2 m/S 746 mmHg 63%
    11:00 +26°C° 0 mm 2 m/S 746 mmHg 59%
    12:00 +27°C° 0 mm 2 m/S 746 mmHg 55%
    13:00 +27°C° 0 mm 2 m/S 745 mmHg 56%
    14:00 +27°C° 0 mm 2 m/S 745 mmHg 57%
    15:00 +27°C° 0 mm 2 m/S 745 mmHg 59%
    16:00 +27°C° 0 mm 2 m/S 745 mmHg 62%
    17:00 +27°C° 0 mm 2 m/S 745 mmHg 65%
    18:00 +27°C° 0 mm 2 m/S 745 mmHg 68%
    19:00 +25°C° 0 mm 2 m/S 745 mmHg 71%
    20:00 +24°C° 0 mm 2 m/S 745 mmHg 73%
    21:00 +21°C° 0 mm 2 m/S 745 mmHg 76%
    22:00 +20°C° 0 mm 2 m/S 745 mmHg 77%
    23:00 +20°C° 0 mm 2 m/S 745 mmHg 78%

    übermorgen, 22 Juni, Samstag

    Zeit Temperatur Niederschläge Wind Luftdruck Luftfeuchtigkeit
    00:00 +19°C° 0 mm 2 m/S 745 mmHg 78%
    01:00 +19°C° 0 mm 2 m/S 745 mmHg 80%
    02:00 +19°C° 0 mm 2 m/S 745 mmHg 82%
    03:00 +18°C° 0 mm 2 m/S 745 mmHg 83%
    04:00 +19°C° 0 mm 2 m/S 745 mmHg 83%
    05:00 +19°C° 0 mm 2 m/S 745 mmHg 83%
    06:00 +20°C° 0 mm 2 m/S 745 mmHg 83%
    07:00 +21°C° 0 mm 3 m/S 745 mmHg 79%
    08:00 +22°C° 0 mm 3 m/S 745 mmHg 76%
    09:00 +25°C° 0 mm 3 m/S 746 mmHg 73%
    10:00 +26°C° 0 mm 4 m/S 746 mmHg 68%
    11:00 +27°C° 0 mm 4 m/S 745 mmHg 64%
    12:00 +28°C° 0 mm 4 m/S 745 mmHg 59%
    13:00 +28°C° 0 mm 5 m/S 745 mmHg 59%
    14:00 +28°C° 0 mm 5 m/S 745 mmHg 59%
    15:00 +28°C° 0 mm 5 m/S 745 mmHg 58%
    16:00 +28°C° 0 mm 4 m/S 745 mmHg 62%
    17:00 +28°C° 0 mm 3 m/S 744 mmHg 66%
    18:00 +28°C° 0 mm 3 m/S 744 mmHg 70%
    19:00 +26°C° 0 mm 3 m/S 744 mmHg 73%
    20:00 +24°C° 0 mm 2 m/S 744 mmHg 76%
    21:00 +23°C° 0 mm 2 m/S 745 mmHg 78%
    22:00 +21°C° 0 mm 2 m/S 745 mmHg 79%
    23:00 +21°C° 0 mm 2 m/S 745 mmHg 80%

    23 Juni, Sonntag

    Zeit Temperatur Niederschläge Wind Luftdruck Luftfeuchtigkeit
    00:00 +20°C° 0 mm 2 m/S 745 mmHg 81%
    01:00 +20°C° 0 mm 2 m/S 745 mmHg 83%
    02:00 +19°C° 0 mm 2 m/S 745 mmHg 84%
    03:00 +19°C° 0 mm 2 m/S 745 mmHg 86%
    04:00 +19°C° 0 mm 2 m/S 745 mmHg 85%
    05:00 +20°C° 0 mm 2 m/S 745 mmHg 85%
    06:00 +20°C° 0 mm 2 m/S 745 mmHg 85%
    07:00 +23°C° 0 mm 2 m/S 745 mmHg 81%
    08:00 +24°C° 0 mm 2 m/S 745 mmHg 76%
    09:00 +26°C° 0 mm 3 m/S 745 mmHg 72%
    10:00 +26°C° 0.2 mm 3 m/S 745 mmHg 70%
    11:00 +27°C° 0.2 mm 3 m/S 745 mmHg 68%
    12:00 +28°C° 0.2 mm 4 m/S 745 mmHg 65%
    13:00 +28°C° 0.1 mm 4 m/S 745 mmHg 64%
    14:00 +28°C° 0.1 mm 4 m/S 745 mmHg 62%
    15:00 +29°C° 0.1 mm 4 m/S 745 mmHg 60%
    16:00 +28°C° 0.5 mm 3 m/S 745 mmHg 64%
    17:00 +28°C° 0.5 mm 3 m/S 745 mmHg 68%
    18:00 +27°C° 0.5 mm 2 m/S 745 mmHg 71%
    19:00 +26°C° 0.1 mm 2 m/S 745 mmHg 76%
    20:00 +24°C° 0.1 mm 2 m/S 745 mmHg 80%
    21:00 +23°C° 0.1 mm 1 m/S 745 mmHg 85%
    22:00 +21°C° 0 mm 2 m/S 746 mmHg 88%
    23:00 +20°C° 0 mm 3 m/S 746 mmHg 91%

    24 Juni, Montag

    Zeit Temperatur Niederschläge Wind Luftdruck Luftfeuchtigkeit
    00:00 +19°C° 0 mm 3 m/S 746 mmHg 94%
    01:00 +18°C° 0 mm 3 m/S 746 mmHg 91%
    02:00 +18°C° 0 mm 4 m/S 746 mmHg 88%
    03:00 +17°C° 0 mm 4 m/S 746 mmHg 86%
    04:00 +15°C° 0 mm 4 m/S 746 mmHg 84%
    05:00 +15°C° 0 mm 4 m/S 747 mmHg 83%
    06:00 +15°C° 0 mm 4 m/S 747 mmHg 81%
    07:00 +17°C° 0.1 mm 4 m/S 747 mmHg 77%
    08:00 +17°C° 0.1 mm 5 m/S 747 mmHg 73%
    09:00 +19°C° 0.1 mm 5 m/S 747 mmHg 68%
    10:00 +20°C° 0.1 mm 5 m/S 747 mmHg 67%
    11:00 +21°C° 0.1 mm 5 m/S 748 mmHg 65%
    12:00 +22°C° 0.1 mm 5 m/S 748 mmHg 64%
    13:00 +22°C° 0 mm 5 m/S 748 mmHg 63%
    14:00 +22°C° 0 mm 5 m/S 747 mmHg 62%
    15:00 +23°C° 0 mm 5 m/S 747 mmHg 61%
    16:00 +22°C° 0 mm 5 m/S 747 mmHg 63%
    17:00 +22°C° 0 mm 4 m/S 747 mmHg 65%
    18:00 +22°C° 0 mm 4 m/S 747 mmHg 67%
    19:00 +20°C° 0 mm 4 m/S 748 mmHg 70%
    20:00 +19°C° 0 mm 3 m/S 748 mmHg 72%
    21:00 +17°C° 0 mm 3 m/S 748 mmHg 74%
    22:00 +17°C° 0 mm 3 m/S 748 mmHg 73%
    23:00 +16°C° 0 mm 3 m/S 748 mmHg 72%

    25 Juni, Dienstag

    Zeit Temperatur Niederschläge Wind Luftdruck Luftfeuchtigkeit
    00:00 +16°C° 0 mm 3 m/S 748 mmHg 70%
    01:00 +14°C° 0 mm 3 m/S 748 mmHg 71%
    02:00 +14°C° 0 mm 3 m/S 748 mmHg 71%
    03:00 +13°C° 0 mm 3 m/S 749 mmHg 72%
    04:00 +13°C° 0 mm 3 m/S 749 mmHg 74%
    05:00 +13°C° 0 mm 3 m/S 749 mmHg 77%
    06:00 +14°C° 0 mm 3 m/S 749 mmHg 79%
    07:00 +16°C° 0 mm 3 m/S 749 mmHg 74%
    08:00 +18°C° 0 mm 3 m/S 749 mmHg 68%
    09:00 +19°C° 0 mm 3 m/S 749 mmHg 63%
    10:00 +20°C° 0 mm 3 m/S 749 mmHg 59%
    11:00 +21°C° 0 mm 3 m/S 749 mmHg 56%
    12:00 +22°C° 0 mm 3 m/S 749 mmHg 52%
    13:00 +22°C° 0 mm 3 m/S 749 mmHg 53%
    14:00 +22°C° 0 mm 3 m/S 748 mmHg 54%
    15:00 +22°C° 0 mm 3 m/S 748 mmHg 54%
    16:00 +22°C° 0 mm 3 m/S 748 mmHg 57%
    17:00 +21°C° 0 mm 3 m/S 748 mmHg 59%
    18:00 +21°C° 0 mm 2 m/S 747 mmHg 62%
    19:00 +19°C° 0 mm 2 m/S 747 mmHg 65%
    20:00 +19°C° 0 mm 1 m/S 747 mmHg 69%
    21:00 +16°C° 0 mm 1 m/S 747 mmHg 73%
    22:00 +16°C° 0 mm 1 m/S 747 mmHg 73%
    23:00 +14°C° 0 mm 0 m/S 747 mmHg 73%
    Mehr zeigen